Tracking 23732 objects as of 28-Sep-2021
HD Live streaming from Space Station
objects crossing your sky now

IRIDIUM 82

Track IRIDIUM 82 now!
10-day predictions
IRIDIUM 82 is classified as:


NORAD ID: 25467
Int'l Code: 1998-051A
Perigee: 477.6 km
Apogee: 721.6 km
Inclination: 86.4 °
Period: 96.5 minutes
Semi major axis: 6970 km
RCS: 4.1187 m2 (large)
Launch date: September 8, 1998
Source: United States (US)
Launch site: AIR FORCE WESTERN TEST RANGE (AFWTR)
aabbcc
Your satellite tracking list
Your tracking list is empty




NASA's NSSDC Master Catalog

Two Line Element Set (TLE):
1 25467U 98051A   21270.78032182  .00003093  00000-0  22548-3 0  9999
2 25467  86.4038  26.0200 0175046 208.9214 150.2230 14.91755099219739
Source of the keplerian elements: AFSPC